Theta_e
322 322 322 323 323 324 324 324 326 330 332 339 339 342 343 344 342 345 347 355 354 355 355 354 355 357 357 356 355 355 354 354 356 355 354 354 354 354 354 354 353 353 353
319 318 319 320 321 322 322 322 322 324 327 331 337 339 337 337 339 344 347 348 349 350 353 353 355 357 358 358 356 356 355 354 354 355 354 353 353 353 355 355 354 353 352
317 317 316 317 318 320 321 321 321 323 323 326 328 336 338 334 334 333 342 345 351 348 350 351 352 354 356 358 357 356 355 354 354 353 353 353 353 353 354 355 355 354 352
317 315 314 315 318 318 318 314 316 316 320 321 322 326 336 338 337 333 334 340 347 345 346 348 347 349 351 352 356 355 355 354 354 353 353 353 353 352 352 354 354 353 352
315 314 313 314 317 317 313 313 313 315 314 318 321 323 326 330 333 336 334 335 333 338 341 343 344 348 347 347 350 352 354 354 353 352 352 353 353 353 352 352 353 352 352
312 312 313 311 314 311 312 312 313 313 315 317 316 321 323 327 329 330 332 333 335 336 336 339 340 341 346 346 346 349 351 353 350 352 351 350 351 352 352 352 352 351 351
308 309 307 310 312 311 312 312 309 309 312 318 316 320 321 323 326 328 328 329 330 335 338 339 341 340 337 345 345 346 348 349 352 351 348 347 347 349 349 350 350 351 351
309 309 309 308 311 309 311 310 310 307 309 313 310 311 313 317 322 325 327 326 329 333 336 339 340 341 338 344 344 346 345 347 347 348 348 347 346 347 349 350 350 349 350
309 308 310 309 310 308 306 310 309 308 305 309 311 308 310 311 321 329 329 334 331 331 332 335 335 337 341 338 333 338 343 344 345 345 346 346 346 347 349 349 349 350 350
307 307 309 309 310 309 307 309 310 310 308 304 306 308 310 314 313 315 327 331 328 327 326 329 330 332 336 338 338 340 341 342 343 342 343 346 348 350 349 350 349 349 350
307 307 310 310 310 308 309 309 310 307 307 305 304 304 306 312 319 315 316 323 326 324 327 327 327 330 331 332 339 340 337 336 338 340 342 343 344 346 349 349 348 348 348
306 309 309 309 310 309 309 308 310 309 306 305 305 304 303 302 303 306 315 318 321 322 327 324 321 320 322 326 334 334 334 335 335 335 338 339 341 342 344 346 348 348 347
306 310 310 310 310 310 311 311 311 310 309 306 305 304 304 304 304 305 308 314 317 325 320 319 319 317 318 322 331 333 331 330 330 330 332 334 336 338 340 341 342 342 343
309 311 311 311 311 311 310 311 309 309 310 309 310 308 306 305 305 304 305 307 311 318 320 312 314 315 316 321 325 326 325 324 323 324 324 326 328 329 331 333 333 336 337
311 312 313 312 312 312 312 312 308 309 310 309 309 310 308 309 310 307 306 307 306 310 317 309 310 312 315 317 320 319 320 321 320 319 320 320 321 322 323 323 324 325 326
313 312 311 312 312 310 310 311 309 311 310 309 309 310 310 307 308 307 308 308 309 307 308 309 307 310 312 314 316 314 315 316 317 316 316 315 316 317 317 318 319 320 320
314 312 312 311 309 308 308 307 310 309 308 309 309 307 309 310 308 307 309 311 310 308 307 305 308 310 310 309 310 312 313 311 311 313 312 312 311 310 311 311 312 313 315
312 311 311 310 309 310 311 311 308 308 309 308 307 307 307 307 308 308 306 308 308 310 309 303 306 308 308 309 309 308 309 311 309 311 311 310 309 308 307 307 307 307 307
312 311 312 308 309 310 309 308 310 308 307 306 308 306 307 307 305 306 306 308 308 309 310 305 304 307 308 308 305 306 306 307 308 310 310 309 309 308 307 306 305 304 304
311 311 311 309 311 310 309 307 306 309 308 306 303 308 308 308 307 307 306 305 306 307 306 304 305 305 305 307 306 302 301 305 304 306 308 307 307 307 307 307 306 305 303
311 310 310 310 309 309 307 309 307 306 305 306 308 307 309 309 308 308 306 305 304 303 303 302 302 303 303 305 303 304 302 302 304 306 307 305 308 307 305 305 306 305 304
312 311 309 309 309 306 302 303 305 306 306 305 304 305 309 308 307 307 307 307 306 304 303 302 301 300 302 304 304 304 302 300 298 307 304 304 305 303 304 304 304 304 304
312 311 311 310 308 308 301 300 303 307 306 305 306 306 306 307 308 308 306 306 305 307 306 306 302 302 303 306 306 304 305 306 303 304 306 302 305 302 304 303 302 302 302
312 311 311 311 310 307 301 299 300 308 307 307 309 307 307 307 307 303 308 307 307 304 307 308 309 308 309 309 310 309 310 306 309 309 310 300 305 302 303 303 301 300 300
311 312 311 310 310 308 300 299 303 310 308 307 308 307 304 306 300 300 306 305 305 305 304 303 302 302 301 302 306 310 309 306 305 304 310 305 304 302 302 302 302 299 299
310 310 310 310 307 308 298 298 301 305 308 304 308 305 302 303 299 299 308 306 304 305 306 305 307 307 307 307 306 313 312 307 304 304 310 306 303 302 297 302 303 303 302
Wind_Speed
9 10 9 8 8 8 9 9 10 9 9 13 11 14 13 11 12 9 11 15 20 19 19 22 22 21 21 20 20 20 20 19 20 21 21 21 22 21 21 20 20 20 19
10 10 9 9 8 8 8 9 11 11 10 10 12 12 14 8 8 10 15 10 10 15 19 22 22 21 21 21 21 21 21 20 20 21 22 22 22 22 22 22 22 21 21
11 13 10 9 9 10 11 10 11 10 11 11 12 12 11 15 8 8 12 8 11 13 17 20 22 21 21 21 22 23 22 23 23 22 22 22 22 22 22 24 23 23 22
12 12 9 10 11 10 8 8 9 10 11 11 11 10 9 10 9 8 11 12 9 8 13 18 17 17 18 21 22 24 23 23 22 21 21 21 22 22 22 23 23 23 23
13 12 9 10 13 10 9 8 9 10 9 11 11 11 11 11 13 9 13 14 14 15 10 13 13 14 14 19 21 23 23 22 21 22 22 21 22 22 23 23 23 23 22
15 12 10 10 10 8 8 8 10 10 12 10 10 12 11 12 12 12 13 13 14 16 15 15 13 13 17 17 19 22 22 20 22 20 20 20 21 23 23 23 23 23 23
10 10 9 10 10 10 10 9 8 10 10 10 11 11 10 14 15 13 12 12 14 13 14 12 11 11 10 15 14 22 23 20 17 14 14 17 21 23 23 23 23 23 23
11 11 11 10 11 10 11 11 9 6 7 9 6 11 10 9 12 13 11 10 13 9 10 11 14 15 8 8 15 18 22 23 20 15 12 13 19 22 22 22 22 23 23
11 10 12 10 11 9 9 11 11 10 6 9 11 5 7 5 7 2 4 4 3 3 3 3 4 6 12 9 12 11 20 19 19 17 14 17 21 21 22 22 21 20 21
11 11 12 12 10 8 8 10 10 8 7 9 8 7 8 7 7 5 3 3 2 4 3 2 2 3 6 5 5 8 17 18 17 14 16 16 18 16 18 18 20 19 21
11 11 12 11 10 8 10 10 10 11 9 5 7 6 9 10 7 6 8 3 3 3 3 3 4 5 5 7 6 10 11 8 10 11 14 17 15 13 14 14 14 15 17
7 11 12 10 10 10 10 9 9 8 5 8 6 7 6 4 7 5 5 6 4 3 4 5 6 5 5 5 10 2 3 3 3 6 10 13 15 15 15 15 16 18 19
9 10 11 11 10 11 12 10 9 8 8 4 5 4 4 4 3 5 6 6 4 1 3 6 6 6 6 6 9 8 10 9 8 9 9 11 10 8 6 9 11 13 11
9 11 9 9 9 10 11 11 8 8 7 8 8 3 2 3 4 4 4 5 5 3 2 4 6 6 6 6 10 15 10 17 15 16 17 18 19 20 20 21 20 19 19
9 10 11 11 11 13 12 11 7 8 9 8 9 10 7 6 5 3 4 5 4 4 1 5 3 7 5 6 11 9 11 18 19 18 18 20 20 21 21 21 21 22 22
11 11 11 12 12 12 13 13 10 10 8 7 7 10 8 6 6 6 2 4 4 3 2 3 5 4 6 6 11 12 14 19 22 20 20 22 22 23 22 21 21 21 21
11 11 11 10 10 10 10 12 12 12 11 10 10 9 10 9 5 4 6 4 2 2 2 3 3 4 6 8 9 9 10 11 12 23 22 24 24 24 23 22 21 20 19
11 10 12 12 11 13 12 12 13 13 12 13 11 11 11 8 10 5 5 4 5 3 1 6 2 2 5 7 9 10 8 9 10 22 22 24 24 24 22 21 19 19 17
13 13 13 11 12 13 15 13 13 14 11 12 12 12 11 10 11 6 7 6 4 3 3 5 4 2 3 5 8 8 7 8 8 19 20 22 27 24 21 20 19 17 16
11 12 11 9 12 12 12 12 10 12 11 6 8 12 12 13 12 11 7 8 6 4 7 6 6 5 4 4 5 6 6 5 7 6 14 16 18 18 18 19 17 15 14
9 10 11 11 11 10 10 13 11 9 11 12 11 10 11 13 13 15 7 8 7 6 6 6 5 4 3 3 5 6 7 5 7 5 8 7 7 7 9 15 12 14 12
9 10 12 11 12 11 14 14 11 8 8 9 9 9 11 12 8 14 16 19 14 6 7 5 3 3 4 4 4 5 6 5 4 0 4 5 8 7 7 8 12 12 12
10 10 10 11 11 13 14 14 13 7 6 8 9 8 8 9 10 10 11 11 15 11 7 4 4 1 2 4 6 7 4 4 6 4 3 6 6 7 7 7 11 13 13
8 8 9 11 11 10 14 14 16 4 6 7 10 10 10 9 12 9 6 9 9 11 11 6 4 2 5 4 1 3 5 5 4 3 1 4 4 6 6 6 12 12 11
9 10 9 9 12 11 12 14 15 9 7 7 9 10 9 10 13 13 5 9 8 9 7 8 8 6 7 7 6 3 4 6 4 2 4 4 5 6 5 5 6 8 10
6 7 8 8 7 11 13 13 14 5 9 6 6 7 11 11 10 11 8 4 6 6 4 5 6 5 4 5 2 4 3 3 4 5 5 2 5 4 2 3 2 4 6
Wind_Direction
353 336 333 324 322 322 316 312 305 302 295 293 274 270 261 267 263 270 285 195 178 189 215 233 236 233 235 231 229 227 231 230 226 222 220 218 218 216 216 216 216 214 213
353 335 323 327 318 329 324 322 317 304 292 284 284 267 260 268 280 259 247 273 235 201 214 231 235 234 236 239 235 230 228 231 232 227 224 221 220 221 217 216 218 217 216
351 334 328 322 325 327 319 331 318 311 303 297 290 282 255 254 250 292 293 263 253 228 227 229 236 237 242 244 241 238 230 229 228 230 228 223 224 223 223 220 219 217 217
352 330 328 331 341 310 6 325 325 320 308 298 285 276 276 266 253 223 254 278 241 227 230 227 234 240 243 246 248 243 238 233 229 229 229 226 224 224 222 224 224 222 218
349 334 336 345 338 329 2 331 321 312 309 300 296 281 264 261 256 237 216 250 258 264 254 234 246 239 237 255 252 246 240 238 227 224 226 224 224 225 224 223 226 226 224
2 347 350 345 332 333 336 338 325 332 310 292 301 281 264 268 264 259 249 236 235 230 235 242 247 232 229 237 253 252 241 239 232 223 224 225 223 225 224 226 226 227 226
4 355 345 348 346 342 333 344 339 325 315 330 309 293 260 235 242 248 244 241 245 246 250 260 249 245 242 224 228 254 246 244 238 235 235 238 235 230 229 227 226 225 226
4 358 350 348 356 336 343 343 347 335 325 340 314 307 267 242 229 231 241 248 252 243 255 246 249 245 253 257 258 240 247 237 240 248 259 255 249 240 232 231 227 228 225
359 354 353 347 351 352 346 338 349 341 330 327 335 289 309 305 343 307 255 253 34 29 8 279 274 281 238 224 231 252 235 235 237 234 245 261 259 246 239 235 232 230 228
13 357 354 353 360 338 337 346 348 336 349 336 336 337 300 285 294 272 213 138 120 107 46 6 329 276 266 282 292 261 238 230 233 232 242 252 248 249 240 231 229 230 225
20 8 359 360 359 356 346 350 353 358 356 335 338 333 322 314 341 288 275 215 140 79 60 57 6 349 5 312 259 232 208 218 229 227 229 235 242 246 244 230 229 228 229
16 16 1 358 360 349 353 337 344 358 356 343 346 336 342 339 335 330 318 311 313 160 87 56 36 9 2 318 282 180 187 179 197 221 227 229 230 234 240 239 236 235 238
7 21 2 1 354 350 347 342 333 338 343 326 331 324 323 330 308 309 293 305 311 170 116 47 30 12 352 348 27 100 100 92 97 102 98 100 101 126 175 209 228 241 241
3 350 4 354 353 351 350 343 333 348 355 342 342 294 273 313 307 312 311 328 309 242 115 106 31 22 355 18 44 63 72 88 87 88 87 86 86 84 85 84 81 83 101
357 349 346 345 354 351 354 349 353 344 339 354 349 355 354 354 347 279 306 305 314 312 165 30 83 8 17 31 56 58 70 71 78 83 91 88 87 84 82 82 81 82 82
2 355 354 348 3 1 2 359 346 3 351 1 1 354 343 350 338 325 262 280 276 298 340 17 60 42 34 52 66 64 66 69 66 69 71 81 82 80 77 76 77 80 81
7 3 356 4 0 11 5 354 346 359 4 6 5 345 1 359 322 331 323 283 272 240 280 64 56 69 66 75 62 63 70 68 67 68 67 69 71 73 73 73 72 73 76
17 11 10 7 4 7 358 2 349 354 357 12 358 1 357 358 355 3 321 302 307 276 289 128 109 95 86 84 86 81 69 71 76 71 66 69 69 67 64 63 66 70 70
8 8 12 10 5 6 5 4 356 350 17 13 356 357 352 18 360 8 350 346 316 271 169 139 118 101 97 90 83 69 65 70 70 68 66 66 65 57 57 58 58 62 64
10 5 17 9 15 10 10 358 356 342 6 36 9 353 1 13 14 8 6 11 358 71 116 116 117 107 101 117 89 97 81 70 80 65 72 65 72 61 48 58 50 57 65
16 6 16 17 22 12 14 349 356 353 358 356 12 357 7 8 36 28 23 22 21 58 72 90 91 105 115 106 107 110 102 100 72 67 79 60 61 57 44 42 37 50 65
11 9 3 11 19 24 354 349 341 352 4 0 2 5 348 19 37 61 41 42 44 45 74 74 50 62 76 105 119 120 122 114 82 287 84 115 84 66 54 50 40 49 56
1 0 4 2 15 26 358 345 340 357 3 2 352 5 354 20 10 13 73 50 47 44 82 92 95 93 150 161 155 163 203 163 121 168 132 64 85 85 78 77 50 48 51
357 1 360 359 359 46 3 348 339 19 25 1 13 12 2 19 18 355 18 53 68 49 35 41 60 94 171 161 73 338 95 108 119 93 208 104 105 96 104 91 66 57 55
345 347 4 5 357 35 23 353 342 21 4 16 21 32 10 22 4 348 7 72 35 61 84 79 65 56 53 35 9 227 170 163 146 210 190 137 141 120 92 88 101 98 75
346 337 349 7 343 25 40 3 357 16 18 13 26 16 38 13 351 352 360 46 54 49 69 64 36 58 54 100 27 307 346 222 170 183 201 169 143 145 116 89 124 174 137